,,Stat5,,Stat1,,Stat2,,Stat3,,Stat4,,Wind1,,Wind1,
time,status,PA1M_AVG,status,PR1M_SUM,status,RH1M_AVG,status,SR1M_AVG,status,TA1M_AVG,status,W1dAve1m,status,W1sAve1m,
2000-09-22, 00:00:00,VALID,918.465,VALID,0,VALID,99.6188,VALID,-0.0509425,VALID,18.2854,VALID,192,VALID,0,
2000-09-22, 00:01:00,VALID,918.458,VALID,0,VALID,99.6264,VALID,-0.101885,VALID,18.302,VALID,198,VALID,0.337086,
2000-09-22, 00:02:00,VALID,918.443,VALID,0,VALID,99.6162,VALID,-0.0849042,VALID,18.2948,VALID,192,VALID,0.547286,
2000-09-22, 00:03:00,VALID,918.423,VALID,0,VALID,99.6162,VALID,-0.101885,VALID,18.2821,VALID,193,VALID,0.212674,
2000-09-22, 00:04:00,VALID,918.388,VALID,0,VALID,99.62,VALID,-0.0849042,VALID,18.2821,VALID,208,VALID,0.40111,
2000-09-22, 00:05:00,VALID,918.366,VALID,0,VALID,99.6175,VALID,-0.0679233,VALID,18.2824,VALID,208,VALID,0.0992399,
2000-09-22, 00:06:00,VALID,918.343,VALID,0,VALID,99.6226,VALID,-0.101885,VALID,18.2764,VALID,209,VALID,0.138281,
2000-09-22, 00:07:00,VALID,918.321,VALID,0,VALID,99.6289,VALID,-0.0849042,VALID,18.2731,VALID,209,VALID,0,
2000-09-22, 00:08:00,VALID,918.3,VALID,0,VALID,99.6315,VALID,-0.0849042,VALID,18.2595,VALID,209,VALID,0,
2000-09-22, 00:09:00,VALID,918.277,VALID,0,VALID,99.6239,VALID,-0.101885,VALID,18.257,VALID,209,VALID,0,
2000-09-22, 00:10:00,VALID,918.265,VALID,0,VALID,99.6277,VALID,-0.101885,VALID,18.2468,VALID,209,VALID,0,
2000-09-22, 00:11:00,VALID,918.263,VALID,0,VALID,99.6239,VALID,-0.101885,VALID,18.2568,VALID,209,VALID,0,
2000-09-22, 00:12:00,VALID,918.261,VALID,0,VALID,99.6328,VALID,-0.0849042,VALID,18.2503,VALID,209,VALID,0,
2000-09-22, 00:13:00,VALID,918.274,VALID,0,VALID,99.6404,VALID,-0.0849042,VALID,18.266,VALID,208,VALID,0,
2000-09-22, 00:14:00,VALID,918.278,VALID,0,VALID,99.6569,VALID,-0.101885,VALID,18.2925,VALID,208,VALID,0,
2000-09-22, 00:15:00,VALID,918.26,VALID,0,VALID,99.6468,VALID,0,VALID,18.2909,VALID,208,VALID,0,
2000-09-22, 00:16:00,VALID,918.256,VALID,0,VALID,99.6493,VALID,0.0339617,VALID,18.3077,VALID,208,VALID,0,
2000-09-22, 00:17:00,VALID,918.259,VALID,0,VALID,99.6468,VALID,0,VALID,18.2946,VALID,208,VALID,0,
2000-09-22, 00:18:00,VALID,918.259,VALID,0,VALID,99.6264,VALID,0,VALID,18.2676,VALID,208,VALID,0,
2000-09-22, 00:19:00,VALID,918.247,VALID,0,VALID,99.6061,VALID,0.0169808,VALID,18.2621,VALID,208,VALID,0,
2000-09-22, 00:20:00,VALID,918.248,VALID,0,VALID,99.6022,VALID,0.0339617,VALID,18.2325,VALID,208,VALID,0,
2000-09-22, 00:21:00,VALID,918.247,VALID,0,VALID,99.6124,VALID,0.0169808,VALID,18.2263,VALID,208,VALID,0,
2000-09-22, 00:22:00,VALID,918.238,VALID,0,VALID,99.6251,VALID,0.0169808,VALID,18.2261,VALID,208,VALID,0,
2000-09-22, 00:23:00,VALID,918.23,VALID,0,VALID,99.6124,VALID,0,VALID,18.23,VALID,208,VALID,0,
2000-09-22, 00:24:00,VALID,918.224,VALID,0,VALID,99.601,VALID,0,VALID,18.2009,VALID,208,VALID,0,
2000-09-22, 00:25:00,VALID,918.21,VALID,0,VALID,99.5959,VALID,0,VALID,18.1749,VALID,208,VALID,0,
2000-09-22, 00:26:00,VALID,918.21,VALID,0,VALID,99.6061,VALID,0,VALID,18.1454,VALID,208,VALID,0,
2000-09-22, 00:27:00,VALID,918.201,VALID,0,VALID,99.6289,VALID,0.0509425,VALID,18.1484,VALID,208,VALID,0,
2000-09-22, 00:28:00,VALID,918.204,VALID,0,VALID,99.6429,VALID,0.0169808,VALID,18.168,VALID,208,VALID,0,
2000-09-22, 00:29:00,VALID,918.196,VALID,0,VALID,99.6646,VALID,0.0339617,VALID,18.1776,VALID,208,VALID,0,
2000-09-22, 00:30:00,VALID,918.203,VALID,0,VALID,99.6607,VALID,-0.0509425,VALID,18.185,VALID,208,VALID,0,
2000-09-22, 00:31:00,VALID,918.185,VALID,0,VALID,99.6595,VALID,-0.0509425,VALID,18.2016,VALID,208,VALID,0,
2000-09-22, 00:32:00,VALID,918.169,VALID,0,VALID,99.6582,VALID,-0.0509425,VALID,18.1885,VALID,208,VALID,0,
2000-09-22, 00:33:00,VALID,918.157,VALID,0,VALID,99.6404,VALID,-0.0849042,VALID,18.182,VALID,208,VALID,0,
2000-09-22, 00:34:00,VALID,918.156,VALID,0,VALID,99.6289,VALID,-0.0169808,VALID,18.176,VALID,208,VALID,0,
2000-09-22, 00:35:00,VALID,918.152,VALID,0,VALID,99.6531,VALID,-0.0509425,VALID,18.1693,VALID,208,VALID,0.128906,
2000-09-22, 00:36:00,VALID,918.149,VALID,0,VALID,99.6607,VALID,-0.0679233,VALID,18.1756,VALID,207,VALID,0.0958984,
2000-09-22, 00:37:00,VALID,918.135,VALID,0,VALID,99.648,VALID,-0.0169808,VALID,18.1756,VALID,191,VALID,0.144336,
2000-09-22, 00:38:00,VALID,918.122,VALID,0,VALID,99.62,VALID,-0.0509425,VALID,18.1403,VALID,180,VALID,0.225361,
2000-09-22, 00:39:00,VALID,918.122,VALID,0,VALID,99.6111,VALID,-0.0849042,VALID,18.108,VALID,180,VALID,0.0516036,
2000-09-22, 00:40:00,VALID,918.118,VALID,0,VALID,99.62,VALID,-0.0339617,VALID,18.0946,VALID,180,VALID,0.175195,
2000-09-22, 00:41:00,VALID,918.108,VALID,0,VALID,99.634,VALID,-0.0679233,VALID,18.1112,VALID,180,VALID,0.219141,
2000-09-22, 00:42:00,VALID,918.105,VALID,0,VALID,99.6251,VALID,-0.0339617,VALID,18.1151,VALID,180,VALID,0.138822,
2000-09-22, 00:43:00,VALID,918.084,VALID,0,VALID,99.6429,VALID,-0.0509425,VALID,18.105,VALID,179,VALID,0.444696,
2000-09-22, 00:44:00,VALID,918.061,VALID,0,VALID,99.6442,VALID,-0.0509425,VALID,18.0978,VALID,158,VALID,0.434766,
2000-09-22, 00:45:00,VALID,918.036,VALID,0,VALID,99.6429,VALID,-0.0849042,VALID,18.0983,VALID,149,VALID,0.248047,
2000-09-22, 00:46:00,VALID,918.02,VALID,0,VALID,99.6264,VALID,-0.0339617,VALID,18.0725,VALID,149,VALID,0,
2000-09-22, 00:47:00,VALID,917.995,VALID,0,VALID,99.6315,VALID,-0.0849042,VALID,18.0625,VALID,149,VALID,0,
2000-09-22, 00:48:00,VALID,917.988,VALID,0,VALID,99.6468,VALID,-0.0679233,VALID,18.0528,VALID,149,VALID,0,
2000-09-22, 00:49:00,VALID,917.985,VALID,0,VALID,99.6429,VALID,-0.101885,VALID,18.0761,VALID,149,VALID,0,
2000-09-22, 00:50:00,VALID,917.967,VALID,0,VALID,99.6328,VALID,-0.0679233,VALID,18.0568,VALID,149,VALID,0,
2000-09-22, 00:51:00,VALID,917.965,VALID,0,VALID,99.6302,VALID,-0.101885,VALID,18.0535,VALID,149,VALID,0,
2000-09-22, 00:52:00,VALID,917.96,VALID,0,VALID,99.6239,VALID,-0.0679233,VALID,18.0408,VALID,149,VALID,0,
2000-09-22, 00:53:00,VALID,917.944,VALID,0,VALID,99.6175,VALID,-0.101885,VALID,18.0275,VALID,149,VALID,0,
2000-09-22, 00:54:00,VALID,917.929,VALID,0,VALID,99.6111,VALID,-0.101885,VALID,18.0019,VALID,149,VALID,0,
2000-09-22, 00:55:00,VALID,917.922,VALID,0,VALID,99.5997,VALID,-0.0679233,VALID,17.9762,VALID,149,VALID,0,
2000-09-22, 00:56:00,VALID,917.905,VALID,0,VALID,99.6111,VALID,-0.0849042,VALID,17.9698,VALID,149,VALID,0,
2000-09-22, 00:57:00,VALID,917.871,VALID,0,VALID,99.6556,VALID,-0.0679233,VALID,17.982,VALID,149,VALID,0,
2000-09-22, 00:58:00,VALID,917.857,VALID,0,VALID,99.6633,VALID,-0.0849042,VALID,18.015,VALID,149,VALID,0,
2000-09-22, 00:59:00,VALID,917.817,VALID,0,VALID,99.6671,VALID,-0.0679233,VALID,18.0378,VALID,149,VALID,0,
2000-09-22, 01:00:00,VALID,917.79,VALID,0,VALID,99.6633,VALID,0,VALID,18.0427,VALID,149,VALID,0,
2000-09-22, 01:01:00,VALID,917.768,VALID,0,VALID,99.6658,VALID,0.0339617,VALID,18.0489,VALID,149,VALID,0,
2000-09-22, 01:02:00,VALID,917.744,VALID,0,VALID,99.6836,VALID,0.0509425,VALID,18.0681,VALID,149,VALID,0,
2000-09-22, 01:03:00,VALID,917.723,VALID,0,VALID,99.6646,VALID,0.0509425,VALID,18.075,VALID,149,VALID,0,
2000-09-22, 01:04:00,VALID,917.708,VALID,0,VALID,99.6493,VALID,0.0509425,VALID,18.045,VALID,149,VALID,0,
2000-09-22, 01:05:00,VALID,917.698,VALID,0,VALID,99.6378,VALID,0.0169808,VALID,18.0388,VALID,131,VALID,0,
2000-09-22, 01:06:00,VALID,917.686,VALID,0,VALID,99.6366,VALID,0.0169808,VALID,18.0328,VALID,124,VALID,0,
2000-09-22, 01:07:00,VALID,917.698,VALID,0,VALID,99.6328,VALID,0.0339617,VALID,18.0164,VALID,131,VALID,0,
2000-09-22, 01:08:00,VALID,917.677,VALID,0,VALID,99.6417,VALID,0.0509425,VALID,18.0196,VALID,133,VALID,0,
2000-09-22, 01:09:00,VALID,917.676,VALID,0,VALID,99.6302,VALID,0.0339617,VALID,18.0201,VALID,142,VALID,0,
2000-09-22, 01:10:00,VALID,917.659,VALID,0,VALID,99.6442,VALID,0.0169808,VALID,18,VALID,154,VALID,0,
2000-09-22, 01:11:00,VALID,917.645,VALID,0,VALID,99.6989,VALID,0.0339617,VALID,18.0457,VALID,160,VALID,0,
2000-09-22, 01:12:00,VALID,917.625,VALID,0,VALID,99.7078,VALID,0.0169808,VALID,18.0752,VALID,160,VALID,0,
2000-09-22, 01:13:00,VALID,917.616,VALID,0,VALID,99.6913,VALID,0.0169808,VALID,18.0778,VALID,160,VALID,0,
2000-09-22, 01:14:00,VALID,917.596,VALID,0,VALID,99.6849,VALID,0.0339617,VALID,18.0907,VALID,160,VALID,0,
2000-09-22, 01:15:00,VALID,917.6,VALID,0,VALID,99.6722,VALID,0.0169808,VALID,18.0713,VALID,160,VALID,0,
2000-09-22, 01:16:00,VALID,917.583,VALID,0,VALID,99.6633,VALID,0.0339617,VALID,18.0748,VALID,160,VALID,0,
2000-09-22, 01:17:00,VALID,917.566,VALID,0,VALID,99.6569,VALID,0.0339617,VALID,18.0485,VALID,160,VALID,0,
2000-09-22, 01:18:00,VALID,917.546,VALID,0,VALID,99.6735,VALID,0.0339617,VALID,18.0909,VALID,59,VALID,0,
2000-09-22, 01:19:00,VALID,917.538,VALID,0,VALID,99.6925,VALID,0.0849042,VALID,18.1198,VALID,14,VALID,0,
2000-09-22, 01:20:01,VALID,917.531,VALID,0,VALID,99.6938,VALID,0.0509425,VALID,18.1419,VALID,32,VALID,0,
2000-09-22, 01:21:00,VALID,917.52,VALID,0,VALID,99.6862,VALID,0.0679233,VALID,18.1553,VALID,48,VALID,0,
2000-09-22, 01:22:00,VALID,917.514,VALID,0,VALID,99.6709,VALID,0.0509425,VALID,18.1396,VALID,49,VALID,0,
2000-09-22, 01:23:00,VALID,917.505,VALID,0,VALID,99.6684,VALID,0.0509425,VALID,18.1228,VALID,49,VALID,0,
2000-09-22, 01:24:00,VALID,917.492,VALID,0,VALID,99.6531,VALID,0.0679233,VALID,18.1131,VALID,49,VALID,0,
2000-09-22, 01:25:00,VALID,917.488,VALID,0,VALID,99.6429,VALID,0.0169808,VALID,18.1073,VALID,49,VALID,0,
2000-09-22, 01:26:00,VALID,917.477,VALID,0,VALID,99.6302,VALID,0.0679233,VALID,18.0838,VALID,49,VALID,0,
2000-09-22, 01:27:00,VALID,917.477,VALID,0,VALID,99.6378,VALID,0,VALID,18.0845,VALID,49,VALID,0,
2000-09-22, 01:28:01,VALID,917.466,VALID,0,VALID,99.6239,VALID,0.0679233,VALID,18.0679,VALID,49,VALID,0,
2000-09-22, 01:29:00,VALID,917.471,VALID,0,VALID,99.6188,VALID,0.0679233,VALID,18.0621,VALID,49,VALID,0,
2000-09-22, 01:30:00,VALID,917.47,VALID,0,VALID,99.6302,VALID,-0.0339617,VALID,18.0464,VALID,49,VALID,0,
2000-09-22, 01:31:00,VALID,917.471,VALID,0,VALID,99.6391,VALID,-0.0339617,VALID,18.0664,VALID,49,VALID,0,
2000-09-22, 01:32:01,VALID,917.467,VALID,0,VALID,99.6302,VALID,-0.0339617,VALID,18.0565,VALID,49,VALID,0,
2000-09-22, 01:33:00,VALID,917.458,VALID,0,VALID,99.6213,VALID,-0.0339617,VALID,18.0561,VALID,49,VALID,0,
2000-09-22, 01:34:00,VALID,917.452,VALID,0,VALID,99.6251,VALID,-0.0339617,VALID,18.0558,VALID,49,VALID,0,
2000-09-22, 01:35:00,VALID,917.447,VALID,0,VALID,99.6226,VALID,-0.0339617,VALID,18.0558,VALID,49,VALID,0,
2000-09-22, 01:36:00,VALID,917.433,VALID,0,VALID,99.6404,VALID,-0.0679233,VALID,18.0854,VALID,49,VALID,0,
2000-09-22, 01:37:00,VALID,917.429,VALID,0,VALID,99.6404,VALID,-0.0679233,VALID,18.1144,VALID,49,VALID,0,
2000-09-22, 01:38:00,VALID,917.421,VALID,0,VALID,99.6493,VALID,-0.0339617,VALID,18.1241,VALID,49,VALID,0,
2000-09-22, 01:39:00,VALID,917.422,VALID,0,VALID,99.6429,VALID,-0.0509425,VALID,18.1207,VALID,49,VALID,0,
2000-09-22, 01:40:01,VALID,917.427,VALID,0,VALID,99.634,VALID,-0.0169808,VALID,18.1308,VALID,75,VALID,0,
2000-09-22, 01:41:00,VALID,917.44,VALID,0,VALID,99.6073,VALID,0,VALID,18.0785,VALID,100,VALID,0,
2000-09-22, 01:42:00,VALID,917.462,VALID,0,VALID,99.5908,VALID,-0.0679233,VALID,18.0664,VALID,118,VALID,0,
2000-09-22, 01:43:00,VALID,917.477,VALID,0,VALID,99.5959,VALID,-0.0339617,VALID,18.0464,VALID,118,VALID,0,
2000-09-22, 01:44:01,VALID,917.488,VALID,0,VALID,99.62,VALID,-0.0849042,VALID,18.0667,VALID,118,VALID,0,
2000-09-22, 01:45:00,VALID,917.494,VALID,0,VALID,99.6302,VALID,-0.0509425,VALID,18.0757,VALID,118,VALID,0,
2000-09-22, 01:46:00,VALID,917.499,VALID,0,VALID,99.634,VALID,-0.0849042,VALID,18.0987,VALID,118,VALID,0,
2000-09-22, 01:47:00,VALID,917.485,VALID,0,VALID,99.6315,VALID,-0.101885,VALID,18.1147,VALID,117,VALID,0,
2000-09-22, 01:48:00,VALID,917.464,VALID,0,VALID,99.6188,VALID,-0.0509425,VALID,18.1077,VALID,113,VALID,0,
2000-09-22, 01:49:00,VALID,917.434,VALID,0,VALID,99.615,VALID,-0.0679233,VALID,18.1216,VALID,107,VALID,0,
2000-09-22, 01:50:00,VALID,917.434,VALID,0,VALID,99.6111,VALID,-0.0849042,VALID,18.1119,VALID,101,VALID,0,
2000-09-22, 01:51:00,VALID,917.412,VALID,0,VALID,99.6022,VALID,-0.0509425,VALID,18.1047,VALID,26,VALID,0,
2000-09-22, 01:52:01,VALID,917.398,VALID,0,VALID,99.6188,VALID,-0.0679233,VALID,18.1442,VALID,26,VALID,0,
2000-09-22, 01:53:00,VALID,917.385,VALID,0,VALID,99.6188,VALID,-0.0679233,VALID,18.1435,VALID,28,VALID,0,
2000-09-22, 01:54:00,VALID,917.373,VALID,0,VALID,99.6061,VALID,-0.0509425,VALID,18.144,VALID,54,VALID,0,
2000-09-22, 01:55:00,VALID,917.37,VALID,0,VALID,99.601,VALID,-0.0509425,VALID,18.1338,VALID,91,VALID,0.332854,
2000-09-22, 01:56:01,VALID,917.353,VALID,0,VALID,99.601,VALID,-0.0339617,VALID,18.1209,VALID,96,VALID,0.802148,
2000-09-22, 01:57:00,VALID,917.364,VALID,0,VALID,99.6035,VALID,-0.101885,VALID,18.1283,VALID,100,VALID,0.800781,
2000-09-22, 01:58:00,VALID,917.358,VALID,0,VALID,99.5984,VALID,-0.101885,VALID,18.1248,VALID,102,VALID,0.501002,
2000-09-22, 01:59:00,VALID,917.362,VALID,0,VALID,99.6061,VALID,-0.101885,VALID,18.1213,VALID,119,VALID,0.150288,
2000-09-22, 02:00:00,VALID,917.375,VALID,0,VALID,99.5984,VALID,-0.0339617,VALID,18.114,VALID,122,VALID,0,
2000-09-22, 02:01:00,VALID,917.357,VALID,0,VALID,99.6073,VALID,-0.0169808,VALID,18.1004,VALID,122,VALID,0.00410156,
2000-09-22, 02:02:00,VALID,917.353,VALID,0,VALID,99.5972,VALID,0,VALID,18.0939,VALID,122,VALID,0.0136218,
2000-09-22, 02:03:00,VALID,917.342,VALID,0,VALID,99.6086,VALID,0,VALID,18.1043,VALID,122,VALID,0,
2000-09-22, 02:04:01,VALID,917.334,VALID,0,VALID,99.5972,VALID,0,VALID,18.0909,VALID,122,VALID,0,
2000-09-22, 02:05:00,VALID,917.321,VALID,0,VALID,99.5946,VALID,0,VALID,18.072,VALID,122,VALID,0,
2000-09-22, 02:06:00,VALID,917.325,VALID,0,VALID,99.5832,VALID,-0.0169808,VALID,18.0755,VALID,122,VALID,0,
2000-09-22, 02:07:00,VALID,917.301,VALID,0,VALID,99.5768,VALID,0,VALID,18.0464,VALID,114,VALID,0.372122,
2000-09-22, 02:08:01,VALID,917.293,VALID,0,VALID,99.5806,VALID,-0.0339617,VALID,18.0203,VALID,87,VALID,0.5375,
2000-09-22, 02:09:00,VALID,917.292,VALID,0,VALID,99.5857,VALID,-0.0339617,VALID,18.0134,VALID,92,VALID,0.0777344,
2000-09-22, 02:10:00,VALID,917.304,VALID,0,VALID,99.6035,VALID,-0.0169808,VALID,18.0233,VALID,94,VALID,0.100761,
2000-09-22, 02:11:00,VALID,917.303,VALID,0,VALID,99.62,VALID,-0.0169808,VALID,18.0263,VALID,96,VALID,0.0172697,
2000-09-22, 02:12:00,VALID,917.299,VALID,0,VALID,99.6277,VALID,0,VALID,18.0427,VALID,96,VALID,0,
2000-09-22, 02:13:00,VALID,917.307,VALID,0,VALID,99.6366,VALID,-0.0339617,VALID,18.0528,VALID,96,VALID,0.00585938,
2000-09-22, 02:14:00,VALID,917.3,VALID,0,VALID,99.6366,VALID,-0.0169808,VALID,18.0591,VALID,105,VALID,0.241987,
2000-09-22, 02:15:01,VALID,917.293,VALID,0,VALID,99.6417,VALID,0.0679233,VALID,18.0609,VALID,100,VALID,0.381785,
2000-09-22, 02:16:01,VALID,917.284,VALID,0,VALID,99.6468,VALID,0.101885,VALID,18.0639,VALID,96,VALID,0.606445,
2000-09-22, 02:17:00,VALID,917.275,VALID,0,VALID,99.6315,VALID,0.101885,VALID,18.0538,VALID,92,VALID,0.848437,
2000-09-22, 02:18:00,VALID,917.271,VALID,0,VALID,99.6582,VALID,0.101885,VALID,18.0801,VALID,95,VALID,0.886218,
2000-09-22, 02:19:00,VALID,917.267,VALID,0,VALID,99.6658,VALID,0.135847,VALID,18.1061,VALID,92,VALID,0.956003,
2000-09-22, 02:20:01,VALID,917.27,VALID,0,VALID,99.6709,VALID,0.0849042,VALID,18.1085,VALID,93,VALID,1.25898,
2000-09-22, 02:21:00,VALID,917.273,VALID,0,VALID,99.6468,VALID,0.101885,VALID,18.1061,VALID,86,VALID,1.16387,
2000-09-22, 02:22:00,VALID,917.282,VALID,0,VALID,99.6429,VALID,0.118866,VALID,18.1061,VALID,94,VALID,0.581931,
2000-09-22, 02:23:00,VALID,917.283,VALID,0,VALID,99.6506,VALID,0.101885,VALID,18.1122,VALID,103,VALID,0.790913,
2000-09-22, 02:24:00,VALID,917.276,VALID,0,VALID,99.6518,VALID,0.101885,VALID,18.1052,VALID,86,VALID,0.836133,
2000-09-22, 02:25:00,VALID,917.263,VALID,0,VALID,99.6353,VALID,0.118866,VALID,18.1124,VALID,74,VALID,1.15332,
2000-09-22, 02:26:00,VALID,917.245,VALID,0,VALID,99.634,VALID,0.101885,VALID,18.1089,VALID,90,VALID,1.32171,
2000-09-22, 02:27:00,VALID,917.21,VALID,0,VALID,99.6302,VALID,0.0849042,VALID,18.0995,VALID,96,VALID,1.38117,
2000-09-22, 02:28:01,VALID,917.196,VALID,0,VALID,99.6353,VALID,0.0849042,VALID,18.1126,VALID,83,VALID,0.939453,
2000-09-22, 02:29:00,VALID,917.209,VALID,0,VALID,99.6391,VALID,0.0849042,VALID,18.1117,VALID,84,VALID,0.254102,
2000-09-22, 02:30:00,VALID,917.209,VALID,0,VALID,99.6378,VALID,0.0169808,VALID,18.1262,VALID,99,VALID,0.309696,
2000-09-22, 02:31:00,VALID,917.2,VALID,0,VALID,99.6442,VALID,0,VALID,18.123,VALID,89,VALID,0.573396,
2000-09-22, 02:32:01,VALID,917.191,VALID,0,VALID,99.6378,VALID,-0.0169808,VALID,18.1329,VALID,96,VALID,1.24102,
2000-09-22, 02:33:00,VALID,917.187,VALID,0,VALID,99.6391,VALID,0,VALID,18.1324,VALID,89,VALID,0.787305,
2000-09-22, 02:34:00,VALID,917.2,VALID,0,VALID,99.6226,VALID,0,VALID,18.1361,VALID,103,VALID,0.340946,
2000-09-22, 02:35:01,VALID,917.217,VALID,0,VALID,99.6264,VALID,0,VALID,18.1264,VALID,90,VALID,0.0127467,
2000-09-22, 02:36:00,VALID,917.235,VALID,0,VALID,99.6302,VALID,-0.0339617,VALID,18.117,VALID,83,VALID,0.236914,
2000-09-22, 02:37:01,VALID,917.244,VALID,0,VALID,99.6289,VALID,0,VALID,18.117,VALID,94,VALID,0.320313,
2000-09-22, 02:38:00,VALID,917.252,VALID,0,VALID,99.6378,VALID,0,VALID,18.1202,VALID,94,VALID,0.307492,
2000-09-22, 02:39:01,VALID,917.238,VALID,0,VALID,99.6404,VALID,0,VALID,18.1368,VALID,91,VALID,0.878701,
2000-09-22, 02:40:01,VALID,917.23,VALID,0,VALID,99.6404,VALID,-0.0339617,VALID,18.1299,VALID,98,VALID,1.55273,
2000-09-22, 02:41:00,VALID,917.207,VALID,0,VALID,99.6315,VALID,-0.0169808,VALID,18.1267,VALID,76,VALID,1.12812,
2000-09-22, 02:42:00,VALID,917.186,VALID,0,VALID,99.6213,VALID,0,VALID,18.1038,VALID,77,VALID,0.952324,
2000-09-22, 02:43:01,VALID,917.182,VALID,0,VALID,99.62,VALID,-0.0509425,VALID,18.0944,VALID,91,VALID,0.857936,
2000-09-22, 02:44:01,VALID,917.167,VALID,0,VALID,99.6188,VALID,-0.0509425,VALID,18.078,VALID,95,VALID,1.14551,
2000-09-22, 02:45:01,VALID,917.162,VALID,0,VALID,99.615,VALID,0,VALID,18.0713,VALID,98,VALID,0.527539,
2000-09-22, 02:46:00,VALID,917.156,VALID,0,VALID,99.6086,VALID,0,VALID,18.0653,VALID,81,VALID,0.978566,
2000-09-22, 02:47:01,VALID,917.157,VALID,0,VALID,99.6137,VALID,-0.0169808,VALID,18.0651,VALID,94,VALID,0.750822,
2000-09-22, 02:48:00,VALID,917.172,VALID,0,VALID,99.6048,VALID,-0.0169808,VALID,18.0522,VALID,95,VALID,0.592578,
2000-09-22, 02:49:00,VALID,917.167,VALID,0,VALID,99.5984,VALID,-0.0169808,VALID,18.0397,VALID,90,VALID,0.816602,
2000-09-22, 02:50:01,VALID,917.17,VALID,0,VALID,99.6022,VALID,-0.0339617,VALID,18.0429,VALID,90,VALID,0.864183,
2000-09-22, 02:51:01,VALID,917.167,VALID,0,VALID,99.6086,VALID,0,VALID,18.0526,VALID,75,VALID,0.773643,
2000-09-22, 02:52:01,VALID,917.173,VALID,0,VALID,99.6048,VALID,-0.0169808,VALID,18.0362,VALID,81,VALID,0.777734,
2000-09-22, 02:53:01,VALID,917.171,VALID,0,VALID,99.601,VALID,-0.0169808,VALID,18.0358,VALID,76,VALID,1.29062,
2000-09-22, 02:54:01,VALID,917.161,VALID,0,VALID,99.6061,VALID,0,VALID,18.0236,VALID,70,VALID,1.05389,
2000-09-22, 02:55:01,VALID,917.15,VALID,0,VALID,99.5997,VALID,0,VALID,18.0097,VALID,84,VALID,0.782895,
2000-09-22, 02:56:01,VALID,917.164,VALID,0,VALID,99.6022,VALID,0.0169808,VALID,18.0166,VALID,92,VALID,0.368164,
2000-09-22, 02:57:01,VALID,917.168,VALID,0,VALID,99.6061,VALID,0.0169808,VALID,18.0097,VALID,177,VALID,0.127734,
2000-09-22, 02:58:01,VALID,917.157,VALID,0,VALID,99.6137,VALID,-0.0169808,VALID,18.0231,VALID,130,VALID,0.366987,
2000-09-22, 02:59:01,VALID,917.136,VALID,0,VALID,99.5997,VALID,-0.0509425,VALID,18.0266,VALID,83,VALID,0.217928,
2000-09-22, 03:00:01,VALID,917.124,VALID,0,VALID,99.5997,VALID,0,VALID,18.0199,VALID,88,VALID,0.345703,
2000-09-22, 03:01:01,VALID,917.107,VALID,0,VALID,99.5972,VALID,0,VALID,18.0106,VALID,93,VALID,0.391992,
2000-09-22, 03:02:01,VALID,917.112,VALID,0,VALID,99.587,VALID,-0.0169808,VALID,18.0169,VALID,88,VALID,0.150641,
2000-09-22, 03:03:01,VALID,917.105,VALID,0,VALID,99.6022,VALID,0,VALID,18.0302,VALID,341,VALID,0.228002,
2000-09-22, 03:04:01,VALID,917.09,VALID,0,VALID,99.5959,VALID,-0.0169808,VALID,18.0332,VALID,303,VALID,0.191406,
2000-09-22, 03:05:01,VALID,917.087,VALID,0,VALID,99.6022,VALID,-0.0169808,VALID,18.0462,VALID,303,VALID,0.000195313,
2000-09-22, 03:06:01,VALID,917.078,VALID,0,VALID,99.6099,VALID,0,VALID,18.0528,VALID,303,VALID,0.010617,
2000-09-22, 03:07:01,VALID,917.073,VALID,0,VALID,99.6086,VALID,0.0169808,VALID,18.0526,VALID,45,VALID,0.363898,
2000-09-22, 03:08:01,VALID,917.067,VALID,0,VALID,99.6073,VALID,0,VALID,18.0395,VALID,93,VALID,0.538672,
2000-09-22, 03:09:01,VALID,917.056,VALID,0,VALID,99.6086,VALID,0,VALID,18.0328,VALID,73,VALID,0.520898,
2000-09-22, 03:10:00,VALID,917.049,VALID,0,VALID,99.5946,VALID,0,VALID,18.036,VALID,81,VALID,0.392829,
2000-09-22, 03:11:00,VALID,917.046,VALID,0,VALID,99.601,VALID,0,VALID,18.0194,VALID,96,VALID,0.104646,
2000-09-22, 03:12:00,VALID,917.043,VALID,0,VALID,99.5921,VALID,0,VALID,18.0136,VALID,98,VALID,0.664063,
2000-09-22, 03:13:00,VALID,917.033,VALID,0,VALID,99.5997,VALID,0.0169808,VALID,18.0097,VALID,101,VALID,1.39082,
2000-09-22, 03:14:00,VALID,917.035,VALID,0,VALID,99.5857,VALID,0,VALID,18.0132,VALID,98,VALID,0.522636,
2000-09-22, 03:15:00,VALID,917.037,VALID,0,VALID,99.5768,VALID,0,VALID,17.9908,VALID,88,VALID,0.153372,
2000-09-22, 03:16:00,VALID,917.031,VALID,0,VALID,99.5844,VALID,0.0169808,VALID,17.9839,VALID,88,VALID,0.00664063,
2000-09-22, 03:17:00,VALID,917.023,VALID,0,VALID,99.5933,VALID,-0.0169808,VALID,17.9908,VALID,97,VALID,0.418164,
2000-09-22, 03:18:00,VALID,917.016,VALID,0,VALID,99.5844,VALID,0,VALID,18.0005,VALID,101,VALID,0.500801,
2000-09-22, 03:19:00,VALID,916.995,VALID,0,VALID,99.5921,VALID,0,VALID,18.0169,VALID,94,VALID,0.831003,
2000-09-22, 03:20:00,VALID,916.975,VALID,0,VALID,99.5794,VALID,0.0169808,VALID,18.007,VALID,89,VALID,1.00215,
2000-09-22, 03:21:00,VALID,916.97,VALID,0,VALID,99.5692,VALID,0.0169808,VALID,18.0035,VALID,91,VALID,0.578906,
2000-09-22, 03:22:00,VALID,916.95,VALID,0,VALID,99.5641,VALID,0,VALID,18.0005,VALID,87,VALID,0.991587,
2000-09-22, 03:23:00,VALID,916.936,VALID,0,VALID,99.5603,VALID,0.0169808,VALID,17.9973,VALID,87,VALID,0.968133,
2000-09-22, 03:24:00,VALID,916.928,VALID,0,VALID,99.5654,VALID,0,VALID,18.004,VALID,88,VALID,1.75937,
2000-09-22, 03:25:00,VALID,916.934,VALID,0,VALID,99.5704,VALID,0.0509425,VALID,18.0166,VALID,90,VALID,1.46582,
2000-09-22, 03:26:00,VALID,916.933,VALID,0,VALID,99.5527,VALID,0,VALID,18.0236,VALID,89,VALID,1.15304,
2000-09-22, 03:27:00,VALID,916.948,VALID,0,VALID,99.5425,VALID,0,VALID,18.0266,VALID,100,VALID,1.02447,
2000-09-22, 03:28:00,VALID,916.964,VALID,0,VALID,99.5234,VALID,0,VALID,18.0201,VALID,96,VALID,1.18848,
2000-09-22, 03:29:00,VALID,916.987,VALID,0,VALID,99.5298,VALID,-0.0169808,VALID,18.036,VALID,93,VALID,1.18496,
2000-09-22, 03:30:00,VALID,916.993,VALID,0,VALID,99.5259,VALID,0,VALID,18.0492,VALID,92,VALID,1.58353,
2000-09-22, 03:31:00,VALID,916.979,VALID,0,VALID,99.4967,VALID,-0.0169808,VALID,18.0556,VALID,91,VALID,1.59745,
2000-09-22, 03:32:00,VALID,916.989,VALID,0,VALID,99.4802,VALID,-0.0169808,VALID,18.0752,VALID,72,VALID,0.91875,
2000-09-22, 03:33:00,VALID,917.008,VALID,0,VALID,99.4496,VALID,0,VALID,18.0914,VALID,73,VALID,0.623438,
2000-09-22, 03:34:00,VALID,917.014,VALID,0,VALID,99.428,VALID,0.0339617,VALID,18.0879,VALID,87,VALID,0.790665,
2000-09-22, 03:35:00,VALID,917.015,VALID,0,VALID,99.395,VALID,0.0169808,VALID,18.0911,VALID,85,VALID,0.901933,
2000-09-22, 03:36:00,VALID,917.019,VALID,0,VALID,99.3606,VALID,0.0169808,VALID,18.0879,VALID,68,VALID,0.675586,
2000-09-22, 03:37:00,VALID,917.026,VALID,0,VALID,99.3301,VALID,0.0169808,VALID,18.0815,VALID,77,VALID,1.04961,
2000-09-22, 03:38:00,VALID,917.023,VALID,0,VALID,99.2996,VALID,-0.0169808,VALID,18.0881,VALID,54,VALID,1.10357,